| time (UTC) | temp F | wind direction | speed MPH | gust MPH | rain 1hr in | rain 24hr in | rain mn in | humidity % | barometer mb |
| 20260507063151 | 56 | 252 | 3.0 | 12.0 | 0.00 | 0.00 | 0.00 | 83 | 1004.5 |
| 20260507061648 | 57 | 303 | 2.0 | 6.0 | 0.00 | 0.00 | 0.00 | 88 | 1004.4 |
| 20260507060146 | 58 | 332 | 0.0 | 7.0 | 0.00 | 0.00 | 0.00 | 88 | 1004.6 |
| 20260507054640 | 58 | 273 | 6.0 | 10.0 | 0.00 | 0.00 | 0.00 | 88 | 1004.9 |
| 20260507053134 | 58 | 261 | 2.0 | 6.0 | 0.00 | 0.00 | 0.00 | 89 | 1004.5 |
| 20260507051652 | 59 | 319 | 1.0 | 10.0 | 0.00 | 0.00 | 0.00 | 90 | 1004.8 |
| 20260507050150 | 60 | 291 | 5.0 | 16.0 | 0.00 | 0.00 | 0.00 | 93 | 1004.5 |
| 20260507044705 | 60 | 282 | 1.0 | 7.0 | 0.00 | 0.00 | 0.00 | 94 | 1004.3 |
| 20260507043140 | 60 | 263 | 3.0 | 5.0 | 0.00 | 0.00 | 0.00 | 95 | 1004.3 |
| 20260507041634 | 60 | 234 | 3.0 | 6.0 | 0.00 | 0.00 | 0.00 | 95 | 1004.6 |
| 20260507040152 | 60 | 247 | 7.0 | 11.0 | 0.00 | 0.00 | 0.00 | 95 | 1004.8 |
| 20260507034706 | 58 | 231 | 6.0 | 10.0 | 0.00 | 0.00 | 0.00 | 95 | 1004.4 |
| 20260507033137 | 57 | 219 | 4.0 | 8.0 | 0.00 | 0.00 | 0.00 | 94 | 1004.4 |
| 20260507031652 | 56 | 228 | 4.0 | 8.0 | 0.00 | 0.00 | 0.00 | 94 | 1004.2 |
| 20260507030151 | 57 | 163 | 3.0 | 9.0 | 0.00 | 0.00 | 0.00 | 94 | 1004.0 |
| 20260507024648 | 56 | 216 | 5.0 | 10.0 | 0.00 | 0.00 | 0.00 | 94 | 1004.3 |
| 20260507023147 | 57 | 210 | 4.0 | 10.0 | 0.00 | 0.00 | 0.00 | 94 | 1004.3 |
| 20260507021645 | 57 | 209 | 4.0 | 10.0 | 0.00 | 0.00 | 0.00 | 94 | 1004.2 |
| 20260507020146 | 57 | 176 | 3.0 | 8.0 | 0.00 | 0.00 | 0.00 | 94 | 1004.3 |
| 20260507014639 | 57 | 263 | 3.0 | 3.0 | 0.00 | 0.00 | 0.00 | 94 | 1004.4 |
| 20260507013132 | 0 | 0.0 | 0.0 | 0.00 | 0.00 | 0.00 | -0.1 | ||
| 20260507011709 | 0 | 0.0 | 0.0 | 0.00 | 0.00 | 0.00 | -0.1 | ||
| 20260507010144 | 0 | 0.0 | 0.0 | 0.00 | 0.00 | 0.00 | -0.1 | ||
| 20260507004637 | 0 | 0.0 | 0.0 | 0.00 | 0.00 | 0.00 | -0.1 | ||
| 20260507003154 | 0 | 0.0 | 0.0 | 0.00 | 0.00 | 0.00 | -0.1 | ||
| 20260507001649 | 0 | 0.0 | 0.0 | 0.00 | 0.00 | 0.00 | -0.1 | ||
| 20260507000147 | 0 | 0.0 | 0.0 | 0.00 | 0.00 | 0.00 | -0.1 | ||
| 20260506234648 | 0 | 0.0 | 0.0 | 0.00 | 0.00 | 0.00 | -0.1 | ||
| 20260506233144 | 0 | 0.0 | 0.0 | 0.00 | 0.00 | 0.00 | -0.1 | ||
| 20260506231640 | 0 | 0.0 | 0.0 | 0.00 | 0.00 | 0.00 | -0.1 | ||
| 20260506230133 | 0 | 0.0 | 0.0 | 0.00 | 0.00 | 0.00 | -0.1 | ||
| 20260506224651 | 0 | 0.0 | 0.0 | 0.00 | 0.00 | 0.00 | -0.1 | ||
| 20260506223147 | 0 | 0.0 | 0.0 | 0.00 | 0.00 | 0.00 | -0.1 | ||
| 20260506221644 | 0 | 0.0 | 0.0 | 0.00 | 0.00 | 0.00 | -0.1 | ||
| 20260506220140 | 0 | 0.0 | 0.0 | 0.00 | 0.00 | 0.00 | -0.1 | ||
| 20260506214633 | 0 | 0.0 | 0.0 | 0.00 | 0.00 | 0.00 | -0.1 | ||
| 20260506213149 | 0 | 0.0 | 0.0 | 0.00 | 0.00 | 0.00 | -0.1 | ||
| 20260506211645 | 0 | 0.0 | 0.0 | 0.00 | 0.00 | 0.00 | -0.1 | ||
| 20260506210053 | 0 | 0.0 | 0.0 | 0.00 | 0.00 | 0.00 | -0.1 | ||
| 20260506160139 | 63 | 130 | 7.0 | 13.0 | 0.00 | 0.00 | 0.00 | 75 | 1007.5 |
| 20260506154656 | 63 | 159 | 7.0 | 13.0 | 0.00 | 0.00 | 0.00 | 75 | 1007.7 |
| 20260506153150 | 64 | 136 | 8.0 | 13.0 | 0.00 | 0.00 | 0.00 | 74 | 1008.0 |
| 20260506151647 | 64 | 181 | 8.0 | 14.0 | 0.00 | 0.00 | 0.00 | 74 | 1008.1 |
| 20260506150138 | 63 | 160 | 9.0 | 15.0 | 0.00 | 0.00 | 0.00 | 75 | 1008.2 |
| 20260506144656 | 63 | 165 | 5.0 | 12.0 | 0.00 | 0.00 | 0.00 | 76 | 1008.1 |
| 20260506143213 | 63 | 168 | 9.0 | 14.0 | 0.00 | 0.00 | 0.00 | 77 | 1008.0 |
| 20260506141647 | 62 | 169 | 8.0 | 12.0 | 0.00 | 0.00 | 0.00 | 78 | 1008.1 |
| 20260506140138 | 61 | 171 | 6.0 | 12.0 | 0.00 | 0.00 | 0.00 | 80 | 1008.1 |
| 20260506134654 | 60 | 195 | 8.0 | 13.0 | 0.00 | 0.00 | 0.00 | 82 | 1008.5 |
| 20260506133149 | 60 | 161 | 6.0 | 13.0 | 0.00 | 0.00 | 0.00 | 82 | 1008.7 |
| 20260506131639 | 60 | 142 | 6.0 | 10.0 | 0.00 | 0.00 | 0.00 | 84 | 1008.6 |
| 20260506130216 | 59 | 159 | 7.0 | 12.0 | 0.00 | 0.00 | 0.00 | 83 | 1008.6 |
| 20260506124650 | 60 | 195 | 5.0 | 10.0 | 0.00 | 0.00 | 0.00 | 84 | 1009.0 |
| 20260506123151 | 59 | 152 | 5.0 | 11.0 | 0.00 | 0.00 | 0.00 | 85 | 1008.6 |
| 20260506121646 | 58 | 162 | 6.0 | 9.0 | 0.00 | 0.00 | 0.00 | 86 | 1008.5 |
| 20260506120140 | 58 | 131 | 5.0 | 11.0 | 0.00 | 0.00 | 0.00 | 87 | 1008.9 |
| 20260506114654 | 58 | 187 | 5.0 | 9.0 | 0.00 | 0.00 | 0.00 | 87 | 1009.3 |
| 20260506113151 | 57 | 175 | 5.0 | 12.0 | 0.00 | 0.00 | 0.00 | 87 | 1009.0 |
| 20260506111647 | 57 | 144 | 4.0 | 9.0 | 0.00 | 0.00 | 0.00 | 87 | 1009.1 |
| 20260506110201 | 57 | 155 | 3.0 | 9.0 | 0.00 | 0.00 | 0.00 | 87 | 1009.1 |
| 20260506104656 | 57 | 163 | 5.0 | 9.0 | 0.00 | 0.00 | 0.00 | 87 | 1009.1 |
| 20260506103150 | 58 | 125 | 4.0 | 7.0 | 0.00 | 0.00 | 0.00 | 87 | 1009.1 |
| 20260506101645 | 58 | 187 | 3.0 | 9.0 | 0.00 | 0.00 | 0.00 | 86 | 1009.1 |
| 20260506100136 | 58 | 128 | 5.0 | 8.0 | 0.00 | 0.00 | 0.00 | 86 | 1008.7 |
| 20260506094654 | 58 | 137 | 4.0 | 10.0 | 0.00 | 0.00 | 0.00 | 86 | 1008.9 |
| 20260506093151 | 58 | 144 | 4.0 | 10.0 | 0.00 | 0.00 | 0.00 | 85 | 1008.8 |
| 20260506091647 | 58 | 126 | 6.0 | 10.0 | 0.00 | 0.00 | 0.00 | 85 | 1008.8 |
| 20260506090138 | 58 | 149 | 6.0 | 12.0 | 0.00 | 0.00 | 0.00 | 84 | 1008.8 |
| 20260506084713 | 58 | 188 | 6.0 | 10.0 | 0.00 | 0.00 | 0.00 | 84 | 1008.8 |
| 20260506083147 | 59 | 176 | 3.0 | 10.0 | 0.00 | 0.00 | 0.00 | 83 | 1008.6 |
| 20260506081638 | 59 | 145 | 5.0 | 10.0 | 0.00 | 0.00 | 0.00 | 83 | 1008.6 |
| 20260506080153 | 59 | 142 | 5.0 | 11.0 | 0.00 | 0.00 | 0.00 | 82 | 1008.6 |
| 20260506073144 | 59 | 173 | 6.0 | 12.0 | 0.00 | 0.00 | 0.00 | 81 | 1008.5 |
| 20260506071637 | 59 | 127 | 7.0 | 14.0 | 0.00 | 0.00 | 0.00 | 81 | 1008.4 |
| 20260506070152 | 59 | 142 | 5.0 | 13.0 | 0.00 | 0.00 | 0.00 | 80 | 1008.4 |